Location: Sungai Bunut
(2.6333°N, 113.7333°E)
Time: 19:54:24
(UTC+00:00)

ATLAS 5 CENTAUR R/B - Pass Details

Date: 16 October 2021
Orbit: 497 x 1159 km, 63.4° (Epoch: 25 November)

Event Time Altitude Azimuth Distance (km) Brightness Sun altitude
Rises 20:51:59 0° 346° (NNW) 3,704 5.3 -19.8°
Reaches altitude 10° 20:54:32 10° 351° (N) 2,835 4.7 -19.2°
Maximum altitude 21:01:14 55° 68° (ENE) 1,329 3.5 -17.5°
Drops below altitude 10° 21:08:28 10° 143° (SE) 3,060 5.7 -15.7°
Sets 21:11:18 0° 147° (SSE) 4,018 6.4 -15.0°
